Location: San Antonio
(29.4240°N, 98.4930°W)
Time: 09:18:06
(UTC-05:00)

Envisat - Pass Details

Date: 22 June 2024
Orbit: 762 x 764 km, 98.3° (Epoch: 12 July)

Event Time Altitude Azimuth Distance (km) Brightness Sun altitude
Rises 04:24:32 0° 17° (NNE) 3,226 7.3 -23.4°
Reaches altitude 10° 04:26:53 10° 22° (NNE) 2,297 6.4 -23.1°
Maximum altitude 04:31:52 57° 101° (E) 890 3.4 -22.3°
Enters shadow 04:34:08 31° 166° (SSE) 1,314 3.9 -22.0°
